Theta_e
334 333 332 333 333 333 334 334 335 334 334 334 334 336 337 338 343 346 346 348 351 353 355 353 352 351 351 351 349 349 353 354 355 355 356 357 357 359 359 360 361 360 363 361
337 334 334 335 335 334 334 334 334 335 335 335 337 336 338 342 347 350 352 353 354 354 355 356 355 355 354 354 353 352 354 355 356 357 357 359 359 360 361 362 362 361 359 358
338 334 334 338 336 335 335 335 334 335 335 338 338 338 340 343 345 349 349 350 352 356 356 355 354 355 355 355 355 355 355 356 356 358 359 360 361 362 363 362 360 360 357 351
332 331 335 331 330 331 331 331 331 334 336 337 337 337 339 336 338 339 342 347 348 349 356 355 355 355 353 353 355 355 356 356 357 359 360 361 363 363 362 361 360 356 350 348
326 325 324 323 324 328 334 333 336 336 337 337 337 339 342 336 335 336 338 342 345 346 355 355 358 357 354 354 355 355 356 357 359 360 361 363 363 362 360 359 355 351 348 347
326 327 328 329 333 333 332 333 337 337 337 337 337 339 342 337 335 335 334 335 342 346 350 357 358 358 357 356 357 358 358 359 361 362 363 362 362 360 358 353 352 349 346 341
328 328 327 326 329 329 330 332 332 333 334 335 338 337 336 334 334 333 333 332 337 343 346 351 358 357 358 357 359 359 360 361 362 362 362 360 357 355 352 351 348 344 338 337
327 328 328 329 327 328 329 328 329 329 331 333 332 331 331 332 332 332 332 331 334 339 346 350 354 358 358 359 360 360 360 360 358 356 356 354 351 351 351 348 342 338 337 336
327 326 332 329 329 328 326 327 327 328 330 330 329 329 330 331 331 331 330 331 333 336 340 349 353 355 356 358 359 359 356 355 353 350 350 351 350 348 347 347 342 338 336 335
328 326 326 327 325 324 323 324 324 324 324 325 328 327 327 329 330 331 330 331 333 335 338 342 350 352 354 356 354 353 352 348 347 344 346 346 345 344 343 340 338 337 334 333
326 325 324 323 322 322 322 322 322 322 322 324 325 325 326 327 330 330 329 330 332 334 336 340 345 349 350 351 352 350 346 346 344 337 333 331 329 330 329 327 326 329 327 324
324 322 322 322 322 321 322 322 322 322 322 323 324 324 325 326 328 328 329 329 330 333 335 337 340 344 346 348 350 344 342 342 338 331 330 326 322 318 321 322 323 321 318 318
321 320 321 321 321 321 322 323 324 324 324 325 324 324 324 326 325 325 328 329 329 332 334 335 337 339 339 345 345 342 340 339 333 328 328 326 320 319 315 313 317 317 313 312
321 321 322 321 322 320 322 322 320 321 322 323 324 324 325 325 325 326 327 328 330 333 334 335 336 334 335 341 340 338 337 334 332 330 327 326 324 322 319 318 317 313 311 311
320 320 321 321 321 322 321 321 322 323 323 324 323 325 327 328 330 328 328 330 332 334 333 334 333 331 331 335 336 335 332 331 332 331 328 326 325 324 323 323 322 319 314 311
321 321 321 322 321 322 321 323 324 324 323 323 324 324 327 328 328 328 329 332 334 334 333 331 330 329 328 329 333 332 334 334 331 329 327 325 323 323 321 319 316 313 312 312
321 323 321 320 322 322 323 321 321 322 323 324 324 322 325 327 327 328 330 332 333 333 333 330 326 326 327 329 330 328 328 327 327 327 327 325 323 320 317 315 314 313 309 305
320 320 320 320 321 323 321 320 321 321 322 322 323 324 325 327 329 328 328 331 331 328 324 324 324 326 327 328 328 328 328 327 327 324 322 319 316 315 313 313 313 313 310 304
318 317 318 319 320 320 319 320 320 320 320 321 323 325 325 326 327 328 328 332 329 327 324 323 323 325 326 324 325 325 323 321 320 317 313 311 311 310 311 311 311 310 310 310
317 317 317 318 318 319 319 318 319 320 321 321 323 325 327 327 327 326 329 332 329 328 327 324 322 320 319 318 318 315 313 313 311 309 310 310 310 311 309 310 309 309 308 307
317 317 319 318 318 317 318 319 321 322 322 322 324 326 327 326 325 327 330 330 326 327 325 320 320 318 317 316 316 315 315 313 311 309 309 309 308 308 308 308 308 307 306 305
316 319 318 317 316 318 322 324 322 321 322 323 324 325 326 327 326 328 329 324 318 320 318 316 315 315 312 312 312 312 312 310 310 310 309 309 309 309 308 306 305 304 304 304
317 317 317 317 317 318 321 321 322 323 323 324 325 326 326 326 327 322 320 317 316 315 315 313 314 310 309 308 309 308 308 308 309 309 309 309 309 309 308 307 305 305 304 303
316 315 316 316 316 317 320 321 322 321 321 320 321 323 326 326 321 321 317 314 315 317 316 312 316 314 307 307 307 307 307 307 307 307 308 308 308 307 306 306 305 304 303 303
317 315 315 317 317 316 317 317 319 319 319 320 318 317 323 321 316 313 313 315 316 314 314 316 313 310 309 309 308 307 307 306 305 305 305 305 305 306 306 306 305 304 304 305
317 317 318 316 318 317 316 317 318 318 318 318 317 314 315 315 314 312 312 311 311 309 308 307 307 309 309 309 309 308 308 306 307 307 307 307 306 305 305 305 304 305 305 305
316 315 315 316 316 316 318 319 319 317 317 318 317 315 314 313 313 313 312 310 308 306 306 308 310 311 311 310 310 310 309 309 309 309 308 308 308 307 306 305 305 304 304 304
Wind_Speed
14 11 11 13 15 14 15 14 16 16 17 17 12 12 13 12 13 14 13 11 8 9 12 16 19 20 21 21 23 24 24 24 24 20 19 17 15 14 14 15 14 11 9 7
15 13 14 18 17 17 18 18 20 19 21 9 5 8 9 11 11 12 12 13 13 12 11 15 19 20 21 22 22 23 24 23 20 19 18 17 13 13 14 14 12 10 7 4
17 15 14 17 18 22 21 20 18 16 11 9 9 7 8 9 10 12 13 15 14 13 11 13 17 17 19 19 20 22 22 21 21 20 19 16 13 14 15 15 13 10 6 3
14 13 20 14 12 14 16 16 12 8 7 5 7 10 2 8 12 13 15 16 16 14 13 11 11 13 17 17 19 19 20 20 21 21 20 17 16 16 16 15 13 10 7 5
12 12 17 19 10 9 8 9 5 5 2 5 9 9 8 10 12 13 15 16 18 21 14 11 9 9 14 16 17 18 18 19 20 21 20 18 17 17 16 14 12 9 7 6
12 14 16 2 8 6 6 14 10 4 4 7 10 9 6 17 16 15 18 20 23 21 18 11 9 8 12 16 16 17 17 15 15 15 17 17 17 18 15 13 11 9 8 7
14 14 13 4 3 2 11 2 8 7 8 9 8 8 15 15 15 17 19 21 23 22 17 15 12 8 12 14 14 16 17 17 17 14 12 16 18 17 17 14 12 11 9 8
13 16 19 8 2 9 7 8 10 9 7 8 9 12 13 13 13 14 16 20 19 20 19 16 12 11 12 12 12 15 18 21 17 24 17 14 19 16 15 16 16 11 8 5
8 4 6 4 6 6 9 9 7 11 12 11 12 13 13 13 14 13 17 19 20 18 20 17 12 11 13 10 13 16 20 22 21 24 24 14 15 15 12 13 13 12 7 3
13 13 15 9 11 12 10 10 14 15 15 14 13 14 15 14 13 13 17 18 19 20 18 18 15 10 14 11 16 18 21 25 24 26 25 15 14 14 9 8 8 8 7 4
15 17 19 20 17 15 17 17 17 18 20 17 16 17 16 15 14 14 17 18 18 17 19 20 17 10 11 19 24 21 22 23 24 26 32 27 17 14 13 10 5 7 8 4
11 14 13 15 18 19 20 21 20 20 19 20 19 19 19 16 18 17 18 19 20 19 18 19 16 13 13 19 24 24 23 22 24 22 24 24 25 27 23 19 13 13 9 9
12 15 18 19 20 22 23 19 15 16 17 18 20 22 23 18 22 22 19 21 21 20 18 16 15 14 16 24 25 29 27 25 26 25 23 25 23 24 31 22 20 14 8 8
12 13 17 19 17 18 19 20 25 24 24 23 23 26 23 21 22 21 20 22 20 19 18 15 14 17 19 29 26 30 30 32 30 28 25 24 20 17 20 23 17 13 11 9
13 13 15 18 19 20 24 21 20 19 18 18 23 22 21 16 15 19 21 21 18 16 15 15 16 16 19 29 26 31 29 27 23 21 19 17 17 15 13 14 14 14 13 8
17 19 19 20 20 20 20 20 20 19 18 18 18 21 20 18 16 17 17 16 13 13 15 14 15 14 19 23 20 25 27 27 24 21 21 19 17 15 14 13 12 9 11 9
18 19 16 15 18 18 21 16 19 20 18 20 21 25 22 20 17 16 16 12 14 15 12 14 12 15 16 19 16 18 21 30 29 23 19 17 16 15 14 14 12 10 9 8
17 16 17 18 17 17 17 19 22 25 17 26 28 25 21 18 14 13 13 12 7 6 8 9 12 16 18 19 17 16 19 21 21 20 19 16 14 14 12 13 12 10 13 10
18 17 20 21 22 16 17 18 24 30 27 25 25 22 21 20 17 13 11 12 13 11 11 13 15 10 13 13 13 16 17 15 18 17 17 19 16 13 13 10 10 9 9 14
21 26 22 21 25 24 19 27 28 25 27 21 24 21 16 17 16 15 11 15 16 15 14 14 16 16 17 13 12 15 18 19 18 18 16 14 13 13 12 11 12 11 10 10
15 20 16 16 18 28 25 23 18 15 18 21 18 15 15 16 16 13 11 6 9 14 18 20 20 18 19 23 24 19 13 15 17 18 16 15 14 12 12 12 13 12 10 9
18 13 16 21 22 20 16 13 9 9 10 13 17 17 14 14 14 13 12 14 20 24 25 23 21 21 22 18 21 19 14 14 14 14 14 14 14 13 11 11 10 10 10 8
18 18 20 25 17 20 17 14 14 10 10 10 12 14 15 14 11 11 5 15 25 25 25 26 28 27 23 19 19 20 18 16 16 15 14 13 14 15 13 12 13 11 10 9
14 17 17 22 22 20 16 23 19 19 16 15 12 10 6 6 9 10 17 25 32 31 28 29 28 24 21 17 17 18 18 17 17 17 16 16 16 15 15 14 13 11 11 10
10 14 15 18 13 10 17 21 19 18 20 18 18 11 7 14 15 22 28 32 28 25 28 28 27 26 20 18 18 18 18 18 18 18 17 16 16 17 15 13 12 12 12 10
9 10 11 13 13 14 15 17 14 15 17 16 18 19 20 26 32 30 29 27 25 26 26 28 25 23 23 22 21 20 20 21 19 17 16 15 15 16 15 14 12 10 9 8
10 12 14 12 16 16 13 14 15 16 17 18 19 24 30 31 29 27 26 23 22 25 25 22 22 24 25 23 20 19 18 16 17 16 15 14 12 12 12 11 10 9 8 7
Wind_Direction
268 281 280 276 277 270 260 259 271 289 296 300 326 320 321 314 329 330 333 331 320 260 231 221 210 204 203 209 208 205 204 206 211 213 214 216 219 221 219 215 216 219 227 237
263 265 268 266 263 262 261 266 272 274 277 314 332 311 316 320 331 337 342 340 336 319 254 232 226 211 206 204 203 202 205 207 206 204 204 207 209 213 206 202 200 197 207 228
263 269 274 267 258 251 254 262 273 278 309 346 333 341 323 348 353 356 354 352 342 324 302 258 237 229 222 210 202 198 202 205 202 200 202 208 208 198 194 192 185 184 178 156
267 276 255 266 302 313 287 281 293 282 272 317 320 310 163 29 7 359 356 349 344 332 317 285 242 232 219 207 199 204 201 198 199 201 203 199 190 185 184 184 181 169 155 140
251 243 256 268 258 242 271 267 186 270 249 330 340 302 184 30 3 349 346 343 345 345 321 306 274 240 214 202 195 198 203 202 193 189 186 182 180 178 177 166 152 146 143 126
239 250 261 73 46 25 278 257 34 357 316 322 329 275 89 349 342 338 338 338 342 345 344 328 300 254 225 205 196 197 185 193 188 186 176 174 172 163 156 147 147 142 134 119
232 251 254 348 15 328 252 6 347 340 325 318 315 326 316 321 325 324 327 331 336 335 336 338 315 267 244 226 202 186 180 165 169 161 170 159 149 149 144 144 139 127 124 106
237 259 260 36 223 263 6 333 325 319 316 316 315 310 311 319 325 329 331 330 332 331 331 332 328 297 259 236 209 179 169 147 156 140 135 143 138 144 147 137 123 123 124 119
298 274 79 38 11 351 321 310 329 324 313 311 307 308 309 311 317 321 329 329 328 326 323 318 327 294 272 237 173 177 154 144 141 126 128 145 141 136 140 154 146 150 148 175
278 259 279 329 301 300 310 315 307 298 294 291 292 300 303 302 305 311 313 319 321 321 314 311 314 293 256 185 165 166 148 137 138 127 120 133 142 141 149 163 165 146 145 158
274 281 289 282 291 307 310 297 294 294 291 286 285 285 289 290 290 291 299 305 309 309 309 306 308 290 259 182 169 166 152 148 142 131 135 124 118 106 106 93 76 131 107 99
275 301 294 287 291 295 291 296 294 287 281 282 281 282 281 277 278 284 290 297 300 299 298 300 300 286 249 201 176 152 146 151 142 141 138 145 142 122 127 130 140 122 118 106
301 298 292 296 290 285 280 280 290 296 295 292 284 281 277 274 274 279 278 281 284 290 290 289 277 267 235 210 183 163 161 159 154 158 157 158 155 148 133 133 134 121 112 97
310 303 287 285 290 306 302 295 287 282 284 282 281 284 280 273 271 270 270 276 283 283 283 281 258 244 234 212 184 170 165 164 160 160 161 163 159 157 148 140 137 133 120 100
290 292 288 286 285 280 280 282 283 280 277 280 282 280 280 273 273 271 272 273 274 274 271 267 264 247 234 215 193 173 158 156 153 155 150 152 147 146 132 131 143 143 133 115
300 295 296 302 290 286 293 298 293 286 277 271 274 277 278 275 271 272 270 268 265 265 263 244 245 245 231 209 201 168 159 154 148 144 152 152 151 143 139 140 134 140 131 140
310 303 308 298 305 296 288 294 290 286 286 282 270 272 273 272 270 268 268 267 260 268 256 232 221 225 202 177 164 145 137 136 138 151 160 156 149 144 148 137 145 156 139 101
317 312 309 298 288 284 285 281 282 281 273 271 272 263 266 264 261 269 268 254 220 207 192 187 191 187 181 178 177 155 136 143 145 142 145 148 140 133 137 140 143 148 117 120
322 307 295 299 298 290 282 278 278 277 268 261 264 257 257 258 259 257 256 228 200 198 187 188 165 155 135 146 146 130 125 129 131 132 129 126 121 121 125 134 133 123 126 100
328 322 309 298 296 292 291 286 279 265 264 254 253 249 249 250 243 243 241 219 218 216 191 168 159 153 136 133 126 119 122 126 123 120 115 118 130 143 143 140 127 117 103 120
316 309 309 311 307 303 297 286 287 258 245 240 234 237 241 238 237 226 206 196 200 185 172 164 165 160 158 141 124 114 118 125 120 123 132 132 137 144 132 119 116 127 134 126
338 323 326 324 317 314 326 336 298 295 274 261 247 246 243 235 225 211 212 171 157 168 156 151 150 147 135 127 124 115 124 123 129 133 137 140 132 121 119 124 128 129 130 141
335 334 328 323 349 354 356 7 7 21 6 333 295 271 253 242 194 140 136 156 152 150 143 144 133 129 122 121 121 124 124 130 132 131 130 135 131 132 138 137 132 142 143 141
335 341 330 332 341 349 358 358 5 14 16 5 352 309 216 145 115 147 156 146 142 137 133 136 127 134 130 117 118 123 131 130 124 121 126 129 129 130 129 135 136 140 139 144
323 326 339 345 348 344 344 343 349 358 357 3 9 21 127 141 123 125 125 129 137 132 138 142 141 136 145 142 134 131 130 128 127 126 129 135 138 132 133 136 144 146 143 140
333 347 341 356 350 353 354 349 350 2 1 9 39 46 80 104 108 114 116 119 130 131 131 141 145 146 143 143 138 135 133 131 131 134 139 140 138 136 142 145 146 144 142 145
9 1 360 16 19 8 1 12 8 20 18 22 34 58 79 89 102 105 109 116 124 130 139 145 148 145 140 141 138 137 137 141 139 138 135 134 136 138 145 142 145 156 157 174